"2016-03-16 00:00:00",1461531,11.97,324.6,6.86,1.24,8.67,101.1736,2.294,3.619,23.77,0,110,13.23,3.05,286.6
"2016-03-16 00:00:30",1461532,11.29,320.8,7.169,1.317,8.77,101.1714,2.288,3.606,23.81,0,110,13.23,3.05,282.8
"2016-03-16 00:01:00",1461533,11.27,322.7,6.631,1.357,8.77,101.1621,2.264,3.575,23.81,0,110,13.23,3.02,284.7
"2016-03-16 00:01:30",1461534,11.06,323.3,6.407,1.524,8.98,101.1598,2.259,3.6,23.86,0,110,13.22,3.02,285.3
"2016-03-16 00:02:00",1461535,10.66,320.3,6.642,1.193,8.79,101.1607,2.261,3.605,23.88,0,110,13.23,3.02,282.3
"2016-03-16 00:02:30",1461536,10.82,319.1,6.532,1.269,8.33,101.1459,2.223,3.566,23.87,0,110,13.22,2.98,281.1
"2016-03-16 00:03:00",1461537,10.26,323.1,7.45,1.236,8.36,101.1429,2.215,3.529,23.96,0,110,13.23,2.98,285.1
"2016-03-16 00:03:30",1461538,10.64,331.1,6.528,1.477,8.37,101.1333,2.191,3.523,23.97,0,110,13.23,2.95,293.1
"2016-03-16 00:04:00",1461539,10.25,335.5,6.481,1.328,8.8,101.1305,2.184,3.488,24.03,0,110,13.23,2.94,297.5
"2016-03-16 00:04:30",1461540,9.23,330.3,8.22,1.291,8.78,101.1316,2.187,3.504,24.17,0,110,13.23,2.95,292.3
"2016-03-16 00:05:00",1461541,9.53,321.7,6.997,1.356,8.43,101.1305,2.184,3.527,24.33,0,110,13.24,2.94,283.7
"2016-03-16 00:05:30",1461542,10.39,317.9,6.504,1.247,8.55,101.131,2.185,3.502,24.47,0,110,13.24,2.94,279.9
"2016-03-16 00:06:00",1461543,10.51,324.8,6.697,1.27,8.33,101.1333,2.191,3.493,24.53,0,110,13.24,2.95,286.8
"2016-03-16 00:06:30",1461544,10.32,324.7,7.193,1.329,8.04,101.1347,2.195,3.478,24.55,0,110,13.24,2.95,286.7
"2016-03-16 00:07:00",1461545,11.19,329.6,7.026,1.31,8.38,101.1339,2.192,3.464,24.44,0,110,13.24,2.95,291.6
"2016-03-16 00:07:30",1461546,9.54,328.2,6.992,1.28,8.51,101.128,2.177,3.487,24.42,0,110,13.24,2.94,290.2
"2016-03-16 00:08:00",1461547,9.13,321,9.19,1.42,8.34,101.1237,2.167,3.473,24.53,0,110,13.24,2.93,283.0
"2016-03-16 00:08:30",1461548,9.19,319.7,7.078,1.192,8.43,101.1235,2.166,3.472,24.65,0,110,13.24,2.93,281.7
"2016-03-16 00:09:00",1461549,9.38,321.3,7.595,1.305,8.15,101.1223,2.163,3.446,24.69,0,110,13.24,2.92,283.3
"2016-03-16 00:09:30",1461550,9.01,324.1,6.485,1.405,7.935,101.1187,2.154,3.444,24.56,0,110,13.24,2.91,286.1
"2016-03-16 00:10:00",1461551,8.64,323.2,7.056,1.296,8.29,101.1181,2.152,3.469,24.67,0,110,13.24,2.91,285.2
"2016-03-16 00:10:30",1461552,9.91,326.4,6.935,1.313,8.25,101.1164,2.148,3.462,24.67,0,109.9,13.24,2.91,288.4
"2016-03-16 00:11:00",1461553,9.89,327.6,7.605,1.15,8.15,101.1125,2.138,3.432,24.68,0,110,13.24,2.90,289.6
"2016-03-16 00:11:30",1461554,8.65,331.4,6.678,1.375,8.44,101.11,2.131,3.43,24.75,0,110,13.24,2.89,293.4
"2016-03-16 00:12:00",1461555,9.71,327.5,6.927,1.387,8.18,101.1108,2.134,3.454,24.83,0,110,13.24,2.89,289.5
"2016-03-16 00:12:30",1461556,9.35,321.5,6.339,1.256,8.28,101.1103,2.132,3.424,24.79,0,110,13.24,2.89,283.5
"2016-03-16 00:13:00",1461557,9.37,318.9,6.693,1.241,8.01,101.112,2.136,3.437,24.8,0,110,13.24,2.90,280.9
"2016-03-16 00:13:30",1461558,8.47,319.2,6.617,1.293,7.917,101.1125,2.138,3.426,24.82,0,110,13.24,2.90,281.2
"2016-03-16 00:14:00",1461559,8.81,324.1,7.432,1.262,8.21,101.1125,2.138,3.433,24.88,0,110,13.24,2.90,286.1
"2016-03-16 00:14:30",1461560,8.87,320.4,7.675,1.348,8.18,101.1125,2.138,3.428,24.96,0,110,13.25,2.90,282.4
"2016-03-16 00:15:00",1461561,9.01,316.3,6.655,1.229,7.893,101.1128,2.139,3.437,25.07,0,110,13.25,2.90,278.3
"2016-03-16 00:15:30",1461562,8.92,314.4,8.37,1.448,7.895,101.1131,2.139,3.426,25.51,0,110,13.25,2.90,276.4
"2016-03-16 00:16:00",1461563,8.32,298.1,7.777,1.267,7.66,101.1143,2.142,3.416,26.5,0,109.9,13.25,2.90,260.1
"2016-03-16 00:16:30",1461564,8.72,284.9,7.615,1.388,7.648,101.1162,2.147,3.373,27.81,0,109.9,13.24,2.91,246.9
"2016-03-16 00:17:00",1461565,6.279,275.4,6.161,0.975,4.786,101.1188,2.154,3.249,29.02,0,109.9,13.24,2.91,237.4
"2016-03-16 00:17:30",1461566,6.276,277,5.584,1.08,5.26,101.116,2.147,3.229,29.19,0,109.9,13.24,2.91,239.0
"2016-03-16 00:18:00",1461567,6.857,287,6.499,1.446,6.723,101.1027,2.113,3.343,27.85,0,109.9,13.24,2.87,249.0
"2016-03-16 00:18:30",1461568,7.129,292.5,7.649,1.336,7.836,101.0937,2.09,3.398,27.88,0,109.9,13.24,2.85,254.5
"2016-03-16 00:19:00",1461569,7.056,286.1,11.01,1.386,7.955,101.0869,2.072,3.359,27.94,0,109.9,13.24,2.83,248.1
"2016-03-16 00:19:30",1461570,7.646,294.9,8.97,1.494,7.713,101.0855,2.069,3.364,27.45,0,109.9,13.24,2.83,256.9
"2016-03-16 00:20:00",1461571,6.773,307.7,8.47,1.424,6.723,101.0855,2.069,3.277,26.85,0,109.9,13.24,2.83,269.7
"2016-03-16 00:20:30",1461572,7.274,305,6.562,1.525,5.54,101.0855,2.069,3.21,26.74,0,109.9,13.24,2.83,267.0
"2016-03-16 00:21:00",1461573,5.854,312.5,7.094,1.28,5.889,101.0852,2.068,3.289,26.94,0,109.9,13.24,2.83,274.5
"2016-03-16 00:21:30",1461574,6.169,313.1,8.66,1.287,7.818,101.0807,2.057,3.304,26.81,0,109.9,13.25,2.82,275.1
"2016-03-16 00:22:00",1461575,6.634,302.2,8.36,1.433,7.565,101.0716,2.034,3.279,26.9,0,109.9,13.25,2.79,264.2
"2016-03-16 00:22:30",1461576,7.093,298.4,7.089,1.423,7.418,101.0674,2.023,3.266,27.6,0,109.9,13.25,2.78,260.4
"2016-03-16 00:23:00",1461577,5.761,297.8,7.894,1.327,7.532,101.0651,2.017,3.254,28.5,0,109.9,13.25,2.78,259.8
"2016-03-16 00:23:30",1461578,5.995,294.3,6.397,1.297,5.731,101.0663,2.02,3.213,28.65,0,109.9,13.25,2.78,256.3
"2016-03-16 00:24:00",1461579,6.302,297.8,7.62,1.47,5.391,101.0541,1.989,3.086,28,0,109.9,13.25,2.75,259.8
"2016-03-16 00:24:30",1461580,7.778,313.4,7.739,1.44,6.822,101.0516,1.982,3.192,27.63,0,109.9,13.25,2.74,275.4
"2016-03-16 00:25:00",1461581,7.297,307.1,7.015,1.33,7.725,101.0516,1.982,3.249,27.74,0,109.9,13.26,2.74,269.1
"2016-03-16 00:25:30",1461582,7.205,308.9,9.42,1.287,8.51,101.0516,1.982,3.293,28.04,0,109.9,13.25,2.74,270.9
"2016-03-16 00:26:00",1461583,6.548,315,8.99,1.465,7.731,101.0436,1.962,3.272,28.12,0,109.9,13.25,2.72,277.0
"2016-03-16 00:26:30",1461584,6.288,298.5,6.528,1.213,6.962,101.0357,1.942,3.183,27.98,0,109.9,13.26,2.70,260.5
"2016-03-16 00:27:00",1461585,6.725,299.1,8.08,1.403,6.468,101.0323,1.933,3.069,29.07,0,109.9,13.26,2.69,261.1
"2016-03-16 00:27:30",1461586,6.036,298,7.622,1.358,5.952,101.0196,1.901,3.134,29.47,0,109.9,13.26,2.66,260.0
"2016-03-16 00:28:00",1461587,7.219,299.9,7.966,1.399,7.434,101.0176,1.896,3.187,29.41,0,109.9,13.26,2.65,261.9
"2016-03-16 00:28:30",1461588,7.02,308.6,8.04,1.42,7.541,101.0165,1.893,3.168,28.01,0,109.9,13.26,2.65,270.6
"2016-03-16 00:29:00",1461589,6.947,307.2,8.22,1.337,8.11,101.0038,1.86,3.175,27.41,0,109.9,13.26,2.62,269.2
"2016-03-16 00:29:30",1461590,5.838,309.3,7.259,1.453,7.285,100.9953,1.839,3.134,27.18,0,109.9,13.26,2.60,271.3
"2016-03-16 00:30:00",1461591,5.313,314.6,6.714,1.169,5.708,100.9851,1.813,3.091,27,0,109.9,13.26,2.57,276.6
"2016-03-16 00:30:30",1461592,6.52,312.6,12.39,1.562,6.895,100.9837,1.809,3.038,27.16,0,109.9,13.26,2.57,274.6
"2016-03-16 00:31:00",1461593,6.122,304.6,9.17,1.26,6.38,100.9755,1.788,3.051,27.24,0,109.9,13.26,2.55,266.6
"2016-03-16 00:31:30",1461594,6.652,312.3,7.298,1.374,8.04,100.9653,1.762,3.093,27.36,0,109.9,13.26,2.52,274.3
"2016-03-16 00:32:00",1461595,6.685,306,8.33,1.216,8.09,100.9518,1.728,3.073,27.59,0,109.9,13.26,2.49,268.0
"2016-03-16 00:32:30",1461596,6.648,309.5,6.864,1.375,7.814,100.9518,1.728,3.059,28.23,0,109.9,13.26,2.49,271.5
"2016-03-16 00:33:00",1461597,5.623,309.8,9.14,1.329,5.821,100.9509,1.726,2.997,28.37,0,109.9,13.26,2.48,271.8
"2016-03-16 00:33:30",1461598,6.743,310.9,7.794,1.552,7.046,100.9439,1.708,2.942,28.5,0,109.9,13.26,2.47,272.9
"2016-03-16 00:34:00",1461599,7.051,303.4,7.613,1.573,6.831,100.9403,1.698,2.985,28.76,0,109.9,13.26,2.46,265.4
"2016-03-16 00:34:30",1461600,9.39,302.5,7.03,1.407,7.652,100.9295,1.671,2.983,29.96,0,109.9,13.26,2.43,264.5
"2016-03-16 00:35:00",1461601,9.37,303.9,6.814,1.276,7.982,100.927,1.665,3.006,30.85,0,109.9,13.26,2.42,265.9
"2016-03-16 00:35:30",1461602,8.64,312.1,9.47,1.386,8.18,100.9208,1.649,3.04,30.55,0,109.9,13.26,2.41,274.1
"2016-03-16 00:36:00",1461603,8.06,317.7,7.424,1.309,8.05,100.9078,1.616,2.989,29.74,0,109.9,13.26,2.37,279.7
"2016-03-16 00:36:30",1461604,7.606,327.2,14.79,1.373,7.765,100.8988,1.593,2.949,29.44,0,109.9,13.26,2.35,289.2
"2016-03-16 00:37:00",1461605,6.41,333.9,7.32,1.209,7.612,100.8985,1.592,2.918,29.93,0,109.9,13.26,2.35,295.9
"2016-03-16 00:37:30",1461606,6.298,322.7,9.37,1.245,6.785,100.8833,1.553,2.905,30.14,0,109.9,13.26,2.31,284.7
"2016-03-16 00:38:00",1461607,5.061,308.7,9.76,1.334,5.054,100.8691,1.517,2.675,29.89,0,109.9,13.26,2.27,270.7
"2016-03-16 00:38:30",1461608,5.805,292.2,3.557,0.395,4.109,100.866,1.509,2.661,30.37,0,109.9,13.31,2.27,254.2
"2016-03-16 00:39:00",1461609,8.3,304.2,6.805,1.238,8.23,100.8689,1.516,2.81,31.17,0,109.8,13.27,2.27,266.2
"2016-03-16 00:39:30",1461610,7.902,301.4,7.067,1.34,7.882,100.8587,1.49,2.825,31.49,0,109.9,13.27,2.25,263.4
"2016-03-16 00:40:00",1461611,6.848,305.7,6.861,1.224,8.53,100.8403,1.443,2.831,31.33,0,109.9,13.27,2.20,267.7
"2016-03-16 00:40:30",1461612,7.18,313.4,7.169,1.356,7.582,100.8403,1.443,2.822,30.82,0,109.8,13.27,2.20,275.4
"2016-03-16 00:41:00",1461613,6.578,306,7.936,1.309,7.593,100.8392,1.441,2.743,30.58,0,109.9,13.27,2.20,268.0
"2016-03-16 00:41:30",1461614,5.461,309.6,5.589,1.388,5.595,100.8262,1.407,2.668,30.38,0,109.9,13.27,2.16,271.6
"2016-03-16 00:42:00",1461615,4.239,317.6,7.714,0.635,3.977,100.8203,1.392,2.488,29.93,0,109.8,13.28,2.15,279.6
"2016-03-16 00:42:30",1461616,4.704,319.4,6.419,1.235,5.751,100.8118,1.371,2.593,30.08,0,109.8,13.27,2.13,281.4
"2016-03-16 00:43:00",1461617,5.461,329.8,6.45,1.34,7.996,100.813,1.374,2.735,29.9,0,109.8,13.28,2.13,291.8
"2016-03-16 00:43:30",1461618,5.235,332.3,7.251,1.361,8.1,100.8096,1.365,2.692,29.69,0,109.8,13.28,2.12,294.3
"2016-03-16 00:44:00",1461619,5.051,335.6,7.284,1.403,7.559,100.798,1.335,2.648,29.78,0,109.9,13.28,2.09,297.6
"2016-03-16 00:44:30",1461620,3.953,320.1,11.86,0.964,4.69,100.787,1.307,2.462,30.01,0,109.8,13.28,2.06,282.1
"2016-03-16 00:45:00",1461621,4.101,309.7,10.2,1.283,5.693,100.7804,1.291,2.525,30.59,0,109.8,13.28,2.05,271.7
"2016-03-16 00:45:30",1461622,4.851,312.7,9.23,1.476,7.087,100.7804,1.291,2.54,30.55,0,109.8,13.29,2.05,274.7
"2016-03-16 00:46:00",1461623,5.199,319.5,6.463,1.324,7.855,100.7804,1.291,2.572,30.31,0,109.8,13.29,2.05,281.5
"2016-03-16 00:46:30",1461624,4.485,322.1,7.899,1.426,7.648,100.772,1.269,2.574,30.23,0,109.8,13.29,2.03,284.1
"2016-03-16 00:47:00",1461625,4.849,321.8,7.79,1.297,7.272,100.7638,1.248,2.508,30.1,0,109.8,13.29,2.00,283.8
"2016-03-16 00:47:30",1461626,4.725,314.4,7.729,1.267,6.993,100.7561,1.229,2.506,29.92,0,109.8,13.29,1.98,276.4
"2016-03-16 00:48:00",1461627,4.422,311.7,6.891,1.542,5.785,100.7468,1.205,2.416,29.66,0,109.8,13.29,1.96,273.7
"2016-03-16 00:48:30",1461628,5.975,313,6.769,1.217,7.845,100.7471,1.206,2.511,30.41,0,109.8,13.29,1.96,275.0
"2016-03-16 00:49:00",1461629,5.045,299.3,7.751,1.441,6.539,100.7502,1.214,2.427,30.72,0,109.8,13.29,1.97,261.3
"2016-03-16 00:49:30",1461630,6.279,301,6.657,1.333,7.79,100.7503,1.214,2.532,31.15,0,109.8,13.29,1.97,263.0
"2016-03-16 00:50:00",1461631,6.613,296.3,7.598,1.315,6.232,100.7404,1.188,2.384,31.67,0,109.8,13.29,1.94,258.3
"2016-03-16 00:50:30",1461632,6.061,297.7,6.261,1.114,5.487,100.735,1.175,2.394,32.71,0,109.8,13.29,1.93,259.7
"2016-03-16 00:51:00",1461633,7.528,300.2,7.034,1.303,6.565,100.7294,1.16,2.434,33.04,0,109.8,13.29,1.92,262.2
"2016-03-16 00:51:30",1461634,7.394,303.1,7.373,1.398,6.845,100.7297,1.161,2.499,33.23,0,109.8,13.29,1.92,265.1
"2016-03-16 00:52:00",1461635,7.627,297.1,8.34,1.33,7.464,100.7288,1.159,2.378,32.69,0,109.8,13.29,1.92,259.1
"2016-03-16 00:52:30",1461636,7.818,297.7,7.399,1.341,7.395,100.7175,1.13,2.419,32.58,0,109.8,13.29,1.89,259.7
"2016-03-16 00:53:00",1461637,7.688,300.6,6.693,1.335,7.633,100.7088,1.108,2.482,32.64,0,109.8,13.29,1.86,262.6
"2016-03-16 00:53:30",1461638,7.299,300.1,6.775,1.363,7.324,100.7026,1.092,2.418,32.45,0,109.8,13.29,1.85,262.1
"2016-03-16 00:54:00",1461639,6.71,294.5,6.4,1.35,5.805,100.7034,1.094,2.349,32.39,0,109.8,13.29,1.85,256.5
"2016-03-16 00:54:30",1461640,7.584,299.2,8.1,1.314,7.012,100.7034,1.094,2.372,32.51,0,109.8,13.29,1.85,261.2
"2016-03-16 00:55:00",1461641,7.725,297.2,7.396,1.344,6.447,100.6921,1.065,2.337,33.41,0,109.8,13.29,1.82,259.2
"2016-03-16 00:55:30",1461642,8.72,298.8,7.286,1.289,7.248,100.6882,1.055,2.357,34.04,0,109.8,13.3,1.81,260.8
"2016-03-16 00:56:00",1461643,9.12,297.3,6.693,1.242,7.943,100.6749,1.021,2.405,34.53,0,109.8,13.3,1.78,259.3
"2016-03-16 00:56:30",1461644,9.34,296.5,6.288,1.283,7.758,100.6763,1.025,2.365,34.46,0,109.8,13.3,1.78,258.5
"2016-03-16 00:57:00",1461645,9.68,297.6,6.282,1.18,7.566,100.6775,1.028,2.363,34.44,0,109.8,13.3,1.78,259.6
"2016-03-16 00:57:30",1461646,9.68,298.5,6.41,1.184,7.317,100.669,1.006,2.328,34.53,0,109.8,13.3,1.76,260.5
"2016-03-16 00:58:00",1461647,9.7,297.6,6.779,1.273,7.105,100.6596,0.983,2.301,34.76,0,109.8,13.3,1.74,259.6
"2016-03-16 00:58:30",1461648,9.45,300.4,6.242,1.284,7.428,100.6489,0.955,2.336,34.93,0,109.8,13.3,1.71,262.4
"2016-03-16 00:59:00",1461649,9.27,301,6.013,1.341,7.415,100.6449,0.945,2.313,34.91,0,109.7,13.3,1.70,263.0
"2016-03-16 00:59:30",1461650,9.66,300.1,6.469,1.246,7.348,100.6449,0.945,2.258,34.97,0,109.8,13.3,1.70,262.1
"2016-03-16 01:00:00",1461651,9.42,300.6,6.554,1.173,7.496,100.6449,0.945,2.274,35.08,0,109.8,13.3,1.70,262.6
"2016-03-16 01:00:30",1461652,8.76,300.2,6.864,1.344,6.701,100.6407,0.934,2.246,34.71,0,109.8,13.3,1.69,262.2
"2016-03-16 01:01:00",1461653,8.4,301.3,5.789,1.29,7.182,100.6297,0.906,2.176,34.33,0,109.8,13.3,1.66,263.3
"2016-03-16 01:01:30",1461654,7.519,295.8,6.599,1.348,5.334,100.6232,0.889,2.078,33.95,0,109.8,13.3,1.64,257.8
"2016-03-16 01:02:00",1461655,7.686,298.6,6.616,1.322,6.423,100.6155,0.87,2.127,33.85,0,109.8,13.3,1.63,260.6
"2016-03-16 01:02:30",1461656,6.816,297.1,6.729,1.333,5.98,100.6121,0.861,2.112,33.62,0,109.8,13.3,1.62,259.1
"2016-03-16 01:03:00",1461657,6.926,302.8,6.702,1.303,7.243,100.611,0.858,2.186,33.46,0,109.8,13.3,1.61,264.8
"2016-03-16 01:03:30",1461658,6.95,304.7,6.636,1.366,7.66,100.611,0.858,2.155,33.11,0,109.7,13.3,1.61,266.7
"2016-03-16 01:04:00",1461659,6.82,300.1,7.096,1.317,6.719,100.6121,0.861,2.148,33.03,0,109.8,13.3,1.62,262.1
"2016-03-16 01:04:30",1461660,6.527,301.7,6.975,1.409,6.257,100.6127,0.863,2.081,32.92,0,109.7,13.3,1.62,263.7
"2016-03-16 01:05:00",1461661,6.662,306.3,7.053,1.353,6.542,100.615,0.869,2.069,32.74,0,109.7,13.3,1.62,268.3
"2016-03-16 01:05:30",1461662,5.741,302.2,7.267,1.317,6.008,100.6173,0.874,2.065,32.6,0,109.7,13.3,1.63,264.2
"2016-03-16 01:06:00",1461663,6.112,305.9,6.884,1.332,7.048,100.6187,0.878,2.134,32.39,0,109.7,13.3,1.63,267.9
"2016-03-16 01:06:30",1461664,6.133,307.9,7.231,1.367,7.298,100.6221,0.887,2.074,32.21,0,109.7,13.3,1.64,269.9
"2016-03-16 01:07:00",1461665,5.972,306.5,7.523,1.446,6.848,100.6227,0.888,2.146,32.24,0,109.7,13.3,1.64,268.5
"2016-03-16 01:07:30",1461666,5.89,309.6,6.489,1.338,6.621,100.6247,0.893,2.097,32.62,0,109.7,13.3,1.65,271.6
"2016-03-16 01:08:00",1461667,5.992,310.6,7.312,1.35,6.924,100.6261,0.897,2.104,32.53,0,109.7,13.3,1.65,272.6
"2016-03-16 01:08:30",1461668,5.703,307.4,7.14,1.269,5.748,100.6286,0.903,2.016,32.45,0,109.7,13.3,1.66,269.4
"2016-03-16 01:09:00",1461669,6.583,312.5,7.026,1.322,7.622,100.6298,0.906,2.143,32.49,0,109.7,13.3,1.66,274.5
"2016-03-16 01:09:30",1461670,5.803,310,6.491,1.354,6.932,100.6309,0.909,2.091,32.36,0,109.7,13.3,1.66,272.0
"2016-03-16 01:10:00",1461671,6.442,310.5,6.933,1.34,7.39,100.6306,0.909,2.128,32.5,0,109.7,13.3,1.66,272.5
"2016-03-16 01:10:30",1461672,6.598,309.3,7.236,1.36,7.052,100.6289,0.904,2.072,32.59,0,109.7,13.3,1.66,271.3
"2016-03-16 01:11:00",1461673,6.616,311,6.417,1.364,7.244,100.6306,0.909,2.09,32.71,0,109.7,13.31,1.66,273.0
"2016-03-16 01:11:30",1461674,6.831,309.8,5.948,1.458,7.193,100.6281,0.902,2.138,33.02,0,109.7,13.31,1.66,271.8
"2016-03-16 01:12:00",1461675,6.919,310.1,7.497,1.328,7.199,100.6281,0.902,2.062,33.19,0,109.7,13.31,1.66,272.1
"2016-03-16 01:12:30",1461676,6.396,309.8,7.41,1.337,6.991,100.6273,0.9,2.165,33.34,0,109.7,13.31,1.66,271.8
"2016-03-16 01:13:00",1461677,6.534,312.6,6.891,1.325,7.203,100.6298,0.907,2.149,33.26,0,109.7,13.31,1.66,274.6
"2016-03-16 01:13:30",1461678,6.482,315.8,6.765,1.332,7.377,100.6242,0.892,2.11,33.25,0,109.7,13.31,1.65,277.8
"2016-03-16 01:14:00",1461679,6.02,314,7.078,1.354,6.925,100.6228,0.888,2.052,33.05,0,109.7,13.31,1.64,276.0
"2016-03-16 01:14:30",1461680,5.321,313.5,6.664,1.285,6.693,100.6213,0.885,2.096,32.79,0,109.7,13.32,1.64,275.5
"2016-03-16 01:15:00",1461681,5.648,314.8,6.641,1.366,6.695,100.6182,0.877,2.016,32.4,0,109.7,13.32,1.63,276.8
"2016-03-16 01:15:30",1461682,5.555,319.4,7.438,1.377,7.366,100.6197,0.881,2.111,32.31,0,109.7,13.32,1.64,281.4
"2016-03-16 01:16:00",1461683,5.813,322.4,7.147,1.454,7.108,100.6219,0.886,2.043,32.18,0,109.7,13.32,1.64,284.4
"2016-03-16 01:16:30",1461684,6.111,318.9,7.34,1.363,7.018,100.6202,0.882,2.081,32.57,0,109.7,13.32,1.64,280.9
"2016-03-16 01:17:00",1461685,5.331,315,6.6,1.325,6.485,100.6171,0.874,2.061,32.81,0,109.7,13.32,1.63,277.0
"2016-03-16 01:17:30",1461686,5.536,316.9,6.707,1.324,6.704,100.614,0.866,2.072,32.84,0,109.7,13.32,1.62,278.9
"2016-03-16 01:18:00",1461687,6.118,317.7,6.581,1.334,7.734,100.6106,0.858,2.088,32.81,0,109.7,13.32,1.61,279.7
"2016-03-16 01:18:30",1461688,6.186,318.7,6.977,1.309,7.703,100.6101,0.856,2.068,32.88,0,109.7,13.32,1.61,280.7
"2016-03-16 01:19:00",1461689,6.126,317.9,7.24,1.384,6.828,100.6106,0.858,2.09,33.08,0,109.7,13.32,1.61,279.9
"2016-03-16 01:19:30",1461690,5.247,317.9,10.37,1.438,6.79,100.6109,0.858,2.102,33.41,0,109.7,13.32,1.61,279.9
"2016-03-16 01:20:00",1461691,6.657,316.1,7.514,1.391,6.815,100.6112,0.859,2.015,33.58,0,109.7,13.32,1.61,278.1
"2016-03-16 01:20:30",1461692,6.799,313.8,6.99,1.364,6.784,100.6112,0.859,2.094,34.74,0,109.7,13.32,1.61,275.8
"2016-03-16 01:21:00",1461693,6.733,316.7,7.068,1.349,7.448,100.6101,0.856,2.102,35.44,0,109.7,13.32,1.61,278.7
"2016-03-16 01:21:30",1461694,6.545,316.8,7.041,1.366,7.339,100.6027,0.837,2.088,35.44,0,109.7,13.32,1.59,278.8
"2016-03-16 01:22:00",1461695,6.776,319.2,6.82,1.299,7.534,100.5965,0.821,2.139,35.34,0,109.7,13.32,1.58,281.2
"2016-03-16 01:22:30",1461696,6.379,317.6,7.326,1.348,7.065,100.5939,0.815,2.082,35.34,0,109.7,13.32,1.57,279.6
"2016-03-16 01:23:00",1461697,5.818,314.1,6.934,1.295,5.999,100.5866,0.796,2.051,35.84,0,109.7,13.32,1.55,276.1
"2016-03-16 01:23:30",1461698,6.441,314.6,6.818,1.384,6.815,100.5772,0.772,2.005,36.5,0,109.7,13.32,1.53,276.6
"2016-03-16 01:24:00",1461699,6.76,313.3,7.152,1.305,7.104,100.5772,0.772,2.086,37.11,0,109.7,13.32,1.53,275.3
"2016-03-16 01:24:30",1461700,7.294,312.7,6.831,1.377,7.207,100.5772,0.772,2.069,37.36,0,109.7,13.31,1.53,274.7
"2016-03-16 01:25:00",1461701,7.571,310,7.302,1.308,7.05,100.5772,0.772,2.076,37.47,0,109.7,13.31,1.53,272.0
"2016-03-16 01:25:30",1461702,6.919,306.5,7.078,1.304,6.163,100.5764,0.77,2.043,37.98,0,109.7,13.31,1.52,268.5
"2016-03-16 01:26:00",1461703,7.906,308,6.46,1.236,7.155,100.5651,0.741,2.024,38.17,0,109.7,13.31,1.50,270.0
"2016-03-16 01:26:30",1461704,6.945,303.7,6.558,1.23,5.703,100.5546,0.715,1.948,38.23,0,109.7,13.32,1.47,265.7
"2016-03-16 01:27:00",1461705,7.53,307.1,7.007,1.324,6.857,100.545,0.69,2.001,38.4,0,109.7,13.31,1.44,269.1
"2016-03-16 01:27:30",1461706,7.239,308.3,7.201,1.388,7.165,100.5461,0.693,2.015,38.46,0,109.7,13.31,1.45,270.3
"2016-03-16 01:28:00",1461707,7.201,309.7,7.215,1.325,7.27,100.5518,0.708,2.004,38.02,0,109.7,13.32,1.46,271.7
"2016-03-16 01:28:30",1461708,6.777,307.7,6.992,1.325,6.652,100.5467,0.695,1.921,38.14,0,109.7,13.32,1.45,269.7
"2016-03-16 01:29:00",1461709,6.753,306.7,7.126,1.325,6.646,100.5346,0.664,1.926,38.4,0,109.7,13.32,1.42,268.7
"2016-03-16 01:29:30",1461710,6.689,306.9,7.177,1.419,6.06,100.5269,0.644,1.895,38.49,0,109.7,13.32,1.40,268.9
"2016-03-16 01:30:00",1461711,6.447,306.5,7.13,1.408,6.448,100.5258,0.641,1.896,38.57,0,109.7,13.32,1.40,268.5
"2016-03-16 01:30:30",1461712,6.102,317,11.19,1.367,6.863,100.5267,0.643,1.97,38.12,0,109.7,13.33,1.40,279.0
"2016-03-16 01:31:00",1461713,5.604,309.2,7.816,1.253,6.45,100.529,0.649,1.926,36.47,0,109.7,13.33,1.40,271.2
"2016-03-16 01:31:30",1461714,6.932,315.8,6.145,1.255,7.234,100.5318,0.656,1.901,37.74,0,109.6,13.33,1.41,277.8
"2016-03-16 01:32:00",1461715,6.215,313.5,7.02,1.358,5.889,100.5298,0.651,1.846,38.79,0,109.7,13.33,1.41,275.5
"2016-03-16 01:32:30",1461716,6.358,314.7,7.025,1.327,6.663,100.5199,0.626,1.886,39.16,0,109.6,13.33,1.38,276.7
"2016-03-16 01:33:00",1461717,6.717,316.6,6.918,1.326,7.305,100.5171,0.619,1.894,39.14,0,109.7,13.33,1.37,278.6
"2016-03-16 01:33:30",1461718,6.583,316.2,6.497,1.36,7.28,100.5129,0.608,1.884,39.15,0,109.7,13.33,1.36,278.2
"2016-03-16 01:34:00",1461719,6.926,317.7,6.688,1.241,7.24,100.5058,0.59,1.829,38.98,0,109.7,13.33,1.34,279.7
"2016-03-16 01:34:30",1461720,6.989,316,6.436,1.326,7.238,100.5015,0.579,1.869,39.63,0,109.7,13.33,1.33,278.0
"2016-03-16 01:35:00",1461721,6.969,312.7,7.127,1.377,7.001,100.503,0.583,1.785,39.87,0,109.7,13.33,1.34,274.7
"2016-03-16 01:35:30",1461722,7.159,312.7,6.883,1.343,7.275,100.5024,0.581,1.843,40.1,0,109.7,13.33,1.34,274.7
"2016-03-16 01:36:00",1461723,7.31,309.7,6.882,1.366,6.888,100.5015,0.579,1.863,40.38,0,109.7,13.33,1.33,271.7
"2016-03-16 01:36:30",1461724,7.267,310.9,6.827,1.377,7.062,100.5007,0.577,1.837,40.55,0,109.7,13.33,1.33,272.9
"2016-03-16 01:37:00",1461725,7.19,311.8,6.916,1.319,7.062,100.4914,0.553,1.84,40.74,0,109.7,13.33,1.31,273.8
"2016-03-16 01:37:30",1461726,7.181,309.5,6.972,1.364,6.722,100.4883,0.545,1.811,40.78,0,109.7,13.33,1.30,271.5
"2016-03-16 01:38:00",1461727,6.694,308,6.736,1.345,5.993,100.4792,0.522,1.725,40.7,0,109.7,13.33,1.28,270.0
"2016-03-16 01:38:30",1461728,7.121,309.5,6.838,1.322,7.029,100.4744,0.51,1.804,40.84,0,109.7,13.34,1.26,271.5
"2016-03-16 01:39:00",1461729,6.519,308.7,7.123,1.379,6.277,100.4741,0.509,1.765,40.94,0,109.7,13.34,1.26,270.7
"2016-03-16 01:39:30",1461730,6.736,310.6,7.042,1.372,6.751,100.4744,0.51,1.77,41.08,0,109.7,13.33,1.26,272.6
"2016-03-16 01:40:00",1461731,5.88,306.6,6.458,1.279,5.926,100.4753,0.512,1.757,40.57,0,109.6,13.33,1.27,268.6
"2016-03-16 01:40:30",1461732,6.694,313.9,7.541,1.34,7.003,100.4716,0.503,1.692,39.23,0,109.7,13.33,1.26,275.9
"2016-03-16 01:41:00",1461733,6.829,307.9,6.859,1.391,6.774,100.4656,0.488,1.71,39.41,0,109.7,13.33,1.24,269.9
"2016-03-16 01:41:30",1461734,7.323,310.2,6.63,1.367,6.869,100.4594,0.472,1.745,40.78,0,109.7,13.33,1.23,272.2
"2016-03-16 01:42:00",1461735,7.547,313,6.674,1.32,7.352,100.4557,0.462,1.758,41.19,0,109.7,13.33,1.22,275.0
"2016-03-16 01:42:30",1461736,8.13,311.1,6.771,1.242,7.473,100.4489,0.445,1.768,41.38,0,109.7,13.32,1.20,273.1
"2016-03-16 01:43:00",1461737,8.39,313.6,6.276,1.262,7.234,100.4436,0.431,1.776,41.6,0,109.7,13.33,1.19,275.6
"2016-03-16 01:43:30",1461738,8.4,314.3,6.348,1.29,7.108,100.4416,0.426,1.754,41.71,0,109.7,13.32,1.18,276.3
"2016-03-16 01:44:00",1461739,8.44,313.8,6.667,1.229,7.39,100.4416,0.426,1.754,41.91,0,109.7,13.32,1.18,275.8
"2016-03-16 01:44:30",1461740,8.31,316.5,6.169,1.231,6.988,100.4416,0.426,1.76,42.07,0,109.7,13.33,1.18,278.5
"2016-03-16 01:45:00",1461741,8.06,315.1,6.452,1.219,7.135,100.4416,0.426,1.705,42.16,0,109.6,13.33,1.18,277.1
"2016-03-16 01:45:30",1461742,7.801,316.5,6.011,1.281,7.229,100.441,0.425,1.749,42.22,0,109.7,13.33,1.18,278.5
"2016-03-16 01:46:00",1461743,8.08,317,6.008,1.209,7.134,100.4353,0.41,1.733,42.43,0,109.6,13.34,1.16,279.0
"2016-03-16 01:46:30",1461744,8.17,316.8,6.239,1.163,7.094,100.4257,0.386,1.678,42.71,0,109.6,13.34,1.14,278.8
"2016-03-16 01:47:00",1461745,8.32,318.4,6.648,1.239,7.382,100.4215,0.375,1.704,42.7,0,109.7,13.34,1.13,280.4
"2016-03-16 01:47:30",1461746,8.25,318.8,6.174,1.218,7.045,100.4141,0.356,1.706,42.77,0,109.7,13.34,1.11,280.8
"2016-03-16 01:48:00",1461747,7.936,319.5,6.071,1.239,7.015,100.4093,0.344,1.697,42.93,0,109.6,13.34,1.10,281.5